Regional Weather Roundup
Issued by NWS

Home | Current Version | Previous Version | Graphics & Text | Print | Product List | Glossary On
Versions: 1 2 3 4 5 6 7 8 9 10 11 12 13 14 15 16 17 18 19 20 21 22 23 24 25 26 27
000
ASUS45 KBOI 261810
RWRID

IDAHO REGIONAL WEATHER ROUNDUP
NATIONAL WEATHER SERVICE BOISE ID
1200 PM MDT SUN MAR 26 2017

NOTE: "FAIR" INDICATES FEW OR NO CLOUDS BELOW 12000 FEET
WITH NO SIGNIFICANT WEATHER AND/OR OBSTRUCTIONS TO VISIBILITY

IDZ012-014-261900-
SOUTHWEST IDAHO


CITY           SKY/WX    TMP DP  RH WIND       PRES   REMARKS
BOISE          PTSUNNY   55  29  36 SE22      29.91S
CALDWELL       PTSUNNY   52  38  58 SE7       29.92F
MOUNTAIN HOME  CLOUDY    51  36  56 E15       29.94R
$$

IDZ016-017-261900-
SOUTHCENTRAL IDAHO


CITY           SKY/WX    TMP DP  RH WIND       PRES   REMARKS
BURLEY         PTSUNNY   52  31  44 S8        29.98S
JEROME         PTSUNNY   50  30  46 E6        29.98F
TWIN FALLS     CLOUDY    52  27  38 S12       29.97S
$$

IDZ019>023-261900-
SOUTHEAST IDAHO


CITY           SKY/WX    TMP DP  RH WIND       PRES   REMARKS
IDAHO FALLS    MOSUNNY   46  27  47 SW15      30.01F
POCATELLO      MOSUNNY   50  29  44 CALM      30.01F
REXBURG        SUNNY     45  26  47 SW15G22   30.00F
$$

IDZ006-010-011-018-031-032-261900-
CENTRAL IDAHO MOUNTAINS


CITY           SKY/WX    TMP DP  RH WIND       PRES   REMARKS
MCCALL         CLOUDY    37  25  61 S3        29.89F
HAILEY         MOSUNNY   43  19  39 SW3       30.01S
STANLEY          N/A     28  18  66 N3        29.96F
SALMON         SUNNY     46  21  36 NE7       29.93F
CHALLIS        SUNNY     43  21  41 N5        29.95F
$$

IDZ002-004-006-007-026-261900-
NORTHERN IDAHO


CITY           SKY/WX    TMP DP  RH WIND       PRES   REMARKS
LEWISTON       CLOUDY    48  37  65 E7        29.90S
LOWELL           N/A     51  34  52 N5        29.94F
COEUR D`ALENE  CLOUDY    46  35  65 N9        29.90F
MULLAN PASS    PTSUNNY   31  28  89 VRB6      29.87S WCI  25
$$




USA.gov is the U.S. government's official web portal to all federal, state and local government web resources and services.